Schneifelwetter: Wetterstation Hallschlag, 537 m . NN
Wetterdaten: Montag, 28.11.2011
Datum Zeit Temp. A. Feuchte A. Luftdruck Regen Wind Richtung Richtung Sonnenschein Helligkeit T Regen Taupunkt Windchill
28.11.2011 00:00 -1,0 C 97 % 1025 hPa 0,0 l/m 0,0 km/h (0 Bft) W 275 0 min 0 lux 0 min -1,4 C -1,0 C
28.11.2011 00:15 -1,2 C 97 % 1025 hPa 0,0 l/m 0,0 km/h (0 Bft) W 275 0 min 0 lux 0 min -1,6 C -1,2 C
28.11.2011 00:30 -1,4 C 97 % 1025 hPa 0,0 l/m 0,0 km/h (0 Bft) W 275 0 min 0 lux 0 min -1,8 C -1,4 C
28.11.2011 00:45 -1,4 C 97 % 1025 hPa 0,0 l/m 0,0 km/h (0 Bft) W 275 0 min 0 lux 0 min -1,8 C -1,4 C
28.11.2011 01:00 -1,3 C 97 % 1025 hPa 0,0 l/m 0,0 km/h (0 Bft) W 275 0 min 0 lux 0 min -1,7 C -1,3 C
28.11.2011 01:15 -1,5 C 97 % 1025 hPa 0,0 l/m 0,0 km/h (0 Bft) W 275 0 min 0 lux 0 min -1,9 C -1,5 C
28.11.2011 01:30 -1,8 C 97 % 1025 hPa 0,0 l/m 0,0 km/h (0 Bft) W 275 0 min 0 lux 0 min -2,2 C -1,8 C
28.11.2011 01:45 -2,0 C 98 % 1025 hPa 0,0 l/m 0,0 km/h (0 Bft) W 275 0 min 0 lux 0 min -2,3 C -2,0 C
28.11.2011 02:00 -2,1 C 98 % 1025 hPa 0,0 l/m 0,0 km/h (0 Bft) W 275 0 min 0 lux 0 min -2,4 C -2,1 C
28.11.2011 02:15 -2,1 C 98 % 1025 hPa 0,0 l/m 0,0 km/h (0 Bft) W 275 0 min 0 lux 0 min -2,4 C -2,1 C
28.11.2011 02:30 -2,3 C 98 % 1025 hPa 0,0 l/m 0,0 km/h (0 Bft) W 275 0 min 0 lux 0 min -2,6 C -2,3 C
28.11.2011 02:45 -2,3 C 98 % 1026 hPa 0,0 l/m 0,0 km/h (0 Bft) W 275 0 min 0 lux 0 min -2,6 C -2,3 C
28.11.2011 03:00 -2,5 C 98 % 1026 hPa 0,0 l/m 0,0 km/h (0 Bft) W 275 0 min 0 lux 0 min -2,8 C -2,5 C
28.11.2011 03:15 -2,6 C 98 % 1025 hPa 0,0 l/m 0,0 km/h (0 Bft) W 275 0 min 0 lux 0 min -2,9 C -2,6 C
28.11.2011 03:30 -2,6 C 98 % 1026 hPa 0,0 l/m 0,0 km/h (0 Bft) W 275 0 min 0 lux 0 min -2,9 C -2,6 C
28.11.2011 03:45 -2,9 C 98 % 1025 hPa 0,0 l/m 0,0 km/h (0 Bft) W 275 0 min 0 lux 0 min -3,2 C -2,9 C
28.11.2011 04:00 -3,0 C 98 % 1025 hPa 0,0 l/m 0,0 km/h (0 Bft) W 275 0 min 0 lux 0 min -3,3 C -3,0 C
28.11.2011 04:15 -3,2 C 98 % 1025 hPa 0,0 l/m 0,0 km/h (0 Bft) W 275 0 min 0 lux 0 min -3,5 C -3,2 C
28.11.2011 04:30 -3,4 C 98 % 1025 hPa 0,0 l/m 0,0 km/h (0 Bft) W 270 0 min 0 lux 0 min -3,7 C -3,4 C
28.11.2011 04:45 -3,3 C 98 % 1026 hPa 0,0 l/m 0,0 km/h (0 Bft) W 270 0 min 0 lux 0 min -3,6 C -3,3 C
28.11.2011 05:00 -3,4 C 98 % 1026 hPa 0,0 l/m 0,0 km/h (0 Bft) W 275 0 min 0 lux 0 min -3,7 C -3,4 C
28.11.2011 05:15 -3,3 C 98 % 1026 hPa 0,0 l/m 0,0 km/h (0 Bft) W 270 0 min 0 lux 0 min -3,6 C -3,3 C
28.11.2011 05:30 -3,3 C 98 % 1026 hPa 0,0 l/m 0,0 km/h (0 Bft) W 270 0 min 0 lux 0 min -3,6 C -3,3 C
28.11.2011 05:45 -3,3 C 98 % 1026 hPa 0,0 l/m 0,0 km/h (0 Bft) W 270 0 min 0 lux 0 min -3,6 C -3,3 C
28.11.2011 06:00 -3,4 C 98 % 1026 hPa 0,0 l/m 0,0 km/h (0 Bft) W 270 0 min 0 lux 0 min -3,7 C -3,4 C
28.11.2011 06:15 -3,6 C 98 % 1026 hPa 0,0 l/m 0,0 km/h (0 Bft) W 270 0 min 0 lux 0 min -3,9 C -3,6 C
28.11.2011 06:30 -3,5 C 99 % 1026 hPa 0,0 l/m 0,0 km/h (0 Bft) W 270 0 min 0 lux 0 min -3,6 C -3,5 C
28.11.2011 06:45 -3,6 C 99 % 1026 hPa 0,0 l/m 0,0 km/h (0 Bft) W 270 0 min 0 lux 0 min -3,7 C -3,6 C
28.11.2011 07:01 -3,7 C 99 % 1026 hPa 0,0 l/m 0,0 km/h (0 Bft) W 270 0 min 0 lux 0 min -3,8 C -3,7 C
28.11.2011 07:16 -3,8 C 99 % 1026 hPa 0,0 l/m 0,0 km/h (0 Bft) W 270 0 min 0 lux 0 min -3,9 C -3,8 C
28.11.2011 07:31 -3,9 C 99 % 1025 hPa 0,0 l/m 0,0 km/h (0 Bft) W 270 0 min 0 lux 0 min -4,0 C -3,9 C
28.11.2011 07:46 -4,0 C 99 % 1026 hPa 0,0 l/m 0,0 km/h (0 Bft) W 270 0 min 0 lux 0 min -4,1 C -4,0 C
28.11.2011 08:01 -4,3 C 98 % 1026 hPa 0,0 l/m 0,0 km/h (0 Bft) W 270 0 min 245 lux 0 min -4,6 C -4,3 C
28.11.2011 08:15 -4,4 C 99 % 1025 hPa 0,0 l/m 0,0 km/h (0 Bft) W 270 0 min 829 lux 0 min -4,5 C -4,4 C
28.11.2011 08:30 -4,6 C 98 % 1025 hPa 0,0 l/m 0,0 km/h (0 Bft) W 270 0 min 1,49 klux 0 min -4,9 C -4,6 C
28.11.2011 08:45 -4,6 C 99 % 1025 hPa 0,0 l/m 0,0 km/h (0 Bft) W 270 0 min 3,22 klux 0 min -4,7 C -4,6 C
28.11.2011 09:00 -4,6 C 99 % 1026 hPa 0,0 l/m 0,0 km/h (0 Bft) W 270 0 min 5,85 klux 0 min -4,7 C -4,6 C
28.11.2011 09:16 -4,3 C 99 % 1026 hPa 0,0 l/m 0,0 km/h (0 Bft) W 275 0 min 8,09 klux 0 min -4,4 C -4,3 C
28.11.2011 09:31 -4,2 C 99 % 1026 hPa 0,0 l/m 0,0 km/h (0 Bft) W 270 0 min 16,3 klux 0 min -4,3 C -4,2 C
28.11.2011 09:45 -4,1 C 99 % 1025 hPa 0,0 l/m 0,0 km/h (0 Bft) W 270 0 min 24,3 klux 0 min -4,2 C -4,1 C
28.11.2011 10:00 -3,8 C 99 % 1025 hPa 0,0 l/m 0,0 km/h (0 Bft) W 275 0 min 28,8 klux 0 min -3,9 C -3,8 C
28.11.2011 10:15 -3,3 C 99 % 1025 hPa 0,0 l/m 0,0 km/h (0 Bft) W 270 0 min 31,7 klux 0 min -3,4 C -3,3 C
28.11.2011 10:30 -2,6 C 99 % 1025 hPa 0,0 l/m 0,0 km/h (0 Bft) W 270 0 min 34,2 klux 0 min -2,7 C -2,6 C
28.11.2011 10:46 -1,8 C 99 % 1025 hPa 0,0 l/m 0,0 km/h (0 Bft) W 270 0 min 34,0 klux 0 min -1,9 C -1,8 C
28.11.2011 11:01 -0,8 C 99 % 1025 hPa 0,0 l/m 0,0 km/h (0 Bft) W 270 0 min 35,0 klux 0 min -0,9 C -0,8 C
28.11.2011 11:15 0,1 C 99 % 1025 hPa 0,0 l/m 0,0 km/h (0 Bft) W 275 0 min 36,1 klux 0 min -0,0 C 0,1 C
28.11.2011 11:30 1,0 C 99 % 1025 hPa 0,0 l/m 0,0 km/h (0 Bft) W 270 0 min 37,2 klux 0 min 0,9 C 1,0 C
28.11.2011 11:45 2,1 C 99 % 1025 hPa 0,0 l/m 10,1 km/h (2 Bft) S45 190 0 min 38,1 klux 0 min 2,0 C -1,2 C
28.11.2011 12:00 2,7 C 99 % 1025 hPa 0,0 l/m 7,6 km/h (2 Bft) S 170 0 min 38,6 klux 0 min 2,6 C 1,6 C
28.11.2011 12:16 3,3 C 99 % 1025 hPa 0,0 l/m 12,1 km/h (2 Bft) SW22.5 225 0 min 39,1 klux 0 min 3,2 C -1,3 C
28.11.2011 12:31 3,6 C 99 % 1025 hPa 0,3 l/m 9,9 km/h (2 Bft) S22.5 170 15 min 39,4 klux 15 min 3,5 C 0,6 C
28.11.2011 12:45 4,2 C 99 % 1024 hPa 0,0 l/m 12,6 km/h (3 Bft) SW22.5 215 0 min 39,3 klux 0 min 4,1 C -0,5 C
28.11.2011 13:00 4,5 C 98 % 1024 hPa 0,0 l/m 10,6 km/h (2 Bft) S45 190 0 min 38,9 klux 0 min 4,2 C 1,1 C
28.11.2011 13:15 4,6 C 97 % 1024 hPa 0,0 l/m 9,2 km/h (2 Bft) S22.5 175 0 min 38,4 klux 0 min 4,2 C 2,2 C
28.11.2011 13:30 4,8 C 96 % 1024 hPa 0,0 l/m 8,8 km/h (2 Bft) S-SW45 205 0 min 37,2 klux 0 min 4,2 C 2,7 C
28.11.2011 13:46 4,9 C 95 % 1024 hPa 0,0 l/m 9,8 km/h (2 Bft) S-SW45 205 0 min 36,3 klux 0 min 4,2 C 2,1 C
28.11.2011 14:01 4,9 C 93 % 1024 hPa 0,0 l/m 11,0 km/h (2 Bft) S-SW22.5 210 0 min 34,8 klux 0 min 3,9 C 1,3 C
28.11.2011 14:15 4,9 C 93 % 1024 hPa 0,0 l/m 6,0 km/h (2 Bft) S-SO 160 0 min 32,8 klux 0 min 3,9 C 4,9 C
28.11.2011 14:30 4,8 C 93 % 1024 hPa 0,0 l/m 8,5 km/h (2 Bft) S-SO 150 0 min 30,6 klux 0 min 3,8 C 3,0 C
28.11.2011 14:45 4,9 C 93 % 1023 hPa 0,0 l/m 4,5 km/h (1 Bft) S-SO 160 0 min 28,9 klux 0 min 3,9 C 4,9 C
28.11.2011 15:00 4,7 C 93 % 1023 hPa 0,0 l/m 7,3 km/h (2 Bft) S-SO 160 0 min 26,4 klux 0 min 3,7 C 3,9 C
28.11.2011 15:16 4,5 C 93 % 1023 hPa 0,0 l/m 4,8 km/h (1 Bft) S-SO 160 0 min 23,6 klux 0 min 3,5 C 4,5 C
28.11.2011 15:31 4,2 C 92 % 1023 hPa 0,0 l/m 0,9 km/h (0 Bft) S-SO 160 0 min 20,1 klux 0 min 3,0 C 4,2 C
28.11.2011 15:45 3,6 C 92 % 1023 hPa 0,0 l/m 7,9 km/h (2 Bft) S-SO 160 0 min 16,9 klux 0 min 2,4 C 2,2 C
28.11.2011 16:00 3,2 C 93 % 1022 hPa 0,0 l/m 3,6 km/h (1 Bft) S-SO 160 0 min 12,7 klux 0 min 2,2 C 3,2 C
28.11.2011 16:15 2,8 C 93 % 1022 hPa 0,0 l/m 4,7 km/h (1 Bft) S-SO 160 0 min 8,37 klux 0 min 1,8 C 2,8 C
28.11.2011 16:30 2,1 C 93 % 1022 hPa 0,0 l/m 0,0 km/h (0 Bft) S-SO 165 0 min 2,27 klux 0 min 1,1 C 2,1 C
28.11.2011 16:46 1,5 C 93 % 1022 hPa 0,0 l/m 0,0 km/h (0 Bft) S-SO 165 0 min 1,08 klux 0 min 0,5 C 1,5 C
28.11.2011 17:01 0,8 C 94 % 1022 hPa 0,0 l/m 0,0 km/h (0 Bft) S-SO 165 0 min 261 lux 0 min -0,1 C 0,8 C
28.11.2011 17:15 0,1 C 94 % 1022 hPa 0,0 l/m 0,0 km/h (0 Bft) S-SO 165 0 min 32 lux 0 min -0,7 C 0,1 C
28.11.2011 17:30 -0,6 C 94 % 1022 hPa 0,0 l/m 0,0 km/h (0 Bft) S-SO 165 0 min 6 lux 0 min -1,4 C -0,6 C
28.11.2011 17:45 -1,0 C 94 % 1022 hPa 0,0 l/m 0,0 km/h (0 Bft) S-SO 165 0 min 0 lux 0 min -1,8 C -1,0 C
28.11.2011 18:00 -1,1 C 95 % 1022 hPa 0,0 l/m 0,0 km/h (0 Bft) S-SO 165 0 min 0 lux 0 min -1,8 C -1,1 C
28.11.2011 18:16 -1,5 C 96 % 1022 hPa 0,0 l/m 0,0 km/h (0 Bft) S-SO 165 0 min 0 lux 0 min -2,1 C -1,5 C
28.11.2011 18:31 -1,8 C 96 % 1022 hPa 0,0 l/m 0,0 km/h (0 Bft) S-SO 165 0 min 0 lux 0 min -2,4 C -1,8 C
28.11.2011 18:45 -2,2 C 96 % 1022 hPa 0,0 l/m 0,0 km/h (0 Bft) S-SO 165 0 min 0 lux 0 min -2,7 C -2,2 C
28.11.2011 19:00 -2,4 C 96 % 1022 hPa 0,0 l/m 0,0 km/h (0 Bft) S-SO 165 0 min 0 lux 0 min -2,9 C -2,4 C
28.11.2011 19:15 -2,6 C 96 % 1022 hPa 0,0 l/m 0,0 km/h (0 Bft) S-SO 165 0 min 0 lux 0 min -3,1 C -2,6 C
28.11.2011 19:30 -2,8 C 96 % 1022 hPa 0,0 l/m 0,0 km/h (0 Bft) S-SO 160 0 min 0 lux 0 min -3,3 C -2,8 C
28.11.2011 19:46 -2,6 C 97 % 1022 hPa 0,0 l/m 0,0 km/h (0 Bft) S-SO 160 0 min 0 lux 0 min -3,0 C -2,6 C
28.11.2011 20:01 -2,4 C 97 % 1022 hPa 0,0 l/m 0,0 km/h (0 Bft) S-SO 160 0 min 0 lux 0 min -2,8 C -2,4 C
28.11.2011 20:15 -2,6 C 97 % 1022 hPa 0,0 l/m 0,0 km/h (0 Bft) S-SO 160 0 min 0 lux 0 min -3,0 C -2,6 C
28.11.2011 20:30 -2,6 C 97 % 1021 hPa 0,0 l/m 0,0 km/h (0 Bft) S-SO 160 0 min 0 lux 0 min -3,0 C -2,6 C
28.11.2011 20:45 -2,5 C 97 % 1021 hPa 0,0 l/m 0,0 km/h (0 Bft) S-SO 160 0 min 0 lux 0 min -2,9 C -2,5 C
28.11.2011 21:00 -2,5 C 97 % 1021 hPa 0,0 l/m 0,0 km/h (0 Bft) S-SO 160 0 min 0 lux 0 min -2,9 C -2,5 C
28.11.2011 21:16 -2,3 C 98 % 1021 hPa 0,0 l/m 0,4 km/h (0 Bft) W-SW 250 0 min 0 lux 0 min -2,6 C -2,3 C
28.11.2011 21:31 -2,2 C 98 % 1021 hPa 0,0 l/m 0,0 km/h (0 Bft) W-SW 250 0 min 0 lux 0 min -2,5 C -2,2 C
28.11.2011 21:45 -2,4 C 98 % 1021 hPa 0,0 l/m 0,0 km/h (0 Bft) W-SW 250 0 min 0 lux 0 min -2,7 C -2,4 C
28.11.2011 22:00 -2,4 C 98 % 1021 hPa 0,0 l/m 0,0 km/h (0 Bft) W-SW 250 0 min 0 lux 0 min -2,7 C -2,4 C
28.11.2011 22:15 -2,1 C 98 % 1020 hPa 0,0 l/m 0,0 km/h (0 Bft) S 175 0 min 0 lux 0 min -2,4 C -2,1 C
28.11.2011 22:30 -2,0 C 98 % 1020 hPa 0,0 l/m 0,0 km/h (0 Bft) S 175 0 min 0 lux 0 min -2,3 C -2,0 C
28.11.2011 22:46 -2,0 C 98 % 1020 hPa 0,0 l/m 0,6 km/h (0 Bft) SW45 220 0 min 0 lux 0 min -2,3 C -2,0 C
28.11.2011 23:01 -1,2 C 99 % 1020 hPa 0,0 l/m 12,1 km/h (2 Bft) S-SW22.5 205 0 min 0 lux 0 min -1,3 C -6,5 C
28.11.2011 23:15 -0,6 C 99 % 1020 hPa 0,0 l/m 14,5 km/h (3 Bft) W-SW22.5 240 0 min 0 lux 0 min -0,7 C -7,4 C
28.11.2011 23:30 -0,5 C 98 % 1020 hPa 0,0 l/m 23,8 km/h (4 Bft) W22.5 260 0 min 0 lux 0 min -0,8 C -11,9 C
28.11.2011 23:45 -1,0 C 98 % 1020 hPa 0,0 l/m 23,9 km/h (4 Bft) W-SW22.5 255 0 min 0 lux 0 min -1,3 C -12,6 C
_ Min-Zeit 08:30 15:31 22:15 - 00:00 - - - - - 08:30 23:45
Minimum _ -4,6 C 92 % 1020 hPa - 0,0 km/h (0 Bft) - - - - - -4,9 C -12,6 C
_ Max-Zeit 13:46 06:30 02:45 12:31 23:45 - - 12:31 12:31 12:31 13:30 14:15
Maximum _ 4,9 C 99 % 1026 hPa 0,3 l/m 23,9 km/h
W-SW (4 Bft)
- - 15 min 39,4 klux 15 min 4,2 C 4,9 C
Durchschnitt _ -1,1 C 97 % 1024 hPa #0,3 l/m 2,3 km/h (1 Bft) S-SO - #15 min. 9,2 klux #15 min. -1,5 C -1,8 C